Location: Unspecified
(0.0000°N, 0.0000°E)
Time: 18:25:38
(UTC+00:00)

Vanguard 1 Rocket - Pass Details

Date: 19 April 2026
Orbit: 655 x 4212 km, 34.3° (Epoch: 17 May)

Event Time Altitude Azimuth Distance (km) Brightness Sun altitude
Rises 04:51:15 0° 312° (NW) 6,399 11.4 -16.7°
Reaches altitude 10° 04:56:25 10° 316° (NW) 4,787 10.8 -15.4°
Maximum altitude 05:07:50 56° 31° (NNE) 1,533 8.8 -12.6°
Drops below altitude 10° 05:13:55 10° 109° (ESE) 2,636 10.8 -11.1°
Sets 05:15:59 0° 114° (ESE) 3,373 11.3 -10.6°
